NWS Melbourne » East Central Florida Hourly Weather Roundup

MIARWRMLB 000
TTAA00 KMLB 190111
HOURLY WEATHER ROUNDUP AROUND FLORIDA
NATIONAL WEATHER SERVICE OFFICE MELBOURNE FL
900 PM EDT FRI APR 18 2014
  
CITY           SKY/WX    TMP DP  RH WIND       PRES   REMARKS
MELBOURNE      LGT RAIN  69  67  93 VRB3      29.98R FOG              
FORT PIERCE    HVY RAIN  74  71  91 SW3       29.97R FOG              
ORLANDO INTL   CLOUDY    69  66  90 E6        29.94S                  
DAYTONA BEACH  RAIN      68  67  96 CALM      29.95S                  
VERO BEACH     CLOUDY    74  71  91 W7        29.98R                  
$$
...ELSEWHERE ACROSS CENTRAL FLORIDA...
  
CITY           SKY/WX    TMP DP  RH WIND       PRES   REMARKS
PATRICK AFB    LGT RAIN  70  68  94 SW6       29.98R FOG              
JFK SPACE CTR  CLOUDY    69  67  93 NE1       29.96S                  
CAPE CANAVERAL DRIZZLE   70  68  94 E5        29.96R                  
TITUSVILLE     CLOUDY    70  66  88 VRB3      29.96S                  
ORLANDO EXEC   CLOUDY    70  66  87 SE5       29.93F                  
LEESBURG       CLOUDY    69  66  90 SE6       29.94F                  
SANFORD        CLOUDY    69  68  96 E3        29.95S                  
WINTER HAVEN   CLOUDY    69  66  90 CALM      29.95S                  
KISSIMMEE      CLOUDY    70  68  94 CALM      29.95S                  
OKEECHOBEE     CLOUDY    70  68  94 CALM      29.98R                  
TAMPA          CLOUDY    69  67  93 S5        29.93S                  
$$
...NORTHERN FLORIDA...
  
CITY           SKY/WX    TMP DP  RH WIND       PRES   REMARKS
DELAND         CLOUDY    66  66 100 CALM      29.96S                  
PALM COAST     CLOUDY    66  65  96 CALM      29.95S                  
ST AUGUSTINE   LGT RAIN  67  65  93 S6        29.95F                  
THE VILLAGES     N/A     68  68 100 CALM      29.93F                  
OCALA          CLOUDY    66  63  88 CALM      29.93F                  
GAINESVILLE    CLOUDY    68  66  93 SE5       29.92F                  
JACKSONVILLE   CLOUDY    64  64 100 E6        29.93S                  
TALLAHASSEE    CLOUDY    60  56  86 N9        29.92S                  
$$
...ALONG THE SOUTHEAST COAST TO THE KEYS...
  
CITY           SKY/WX    TMP DP  RH WIND       PRES   REMARKS
STUART         CLOUDY    77  72  83 SE9       29.97S                  
WEST PALM BCH  MOCLDY    78  71  79 SE12      29.97R                  
MIAMI          PTCLDY    78  72  81 SE7       29.98R                  
KEY WEST       CLOUDY    79  73  82 SE12      29.96S                  
$$
...MARINE REPORTS...
  
STATION/POSITION TIME  TEMP    WIND        PRES    WAVE   SWELL
                       AIR SEA DIR/SP/G            HT/PER HT/PER/DIR
                 (UTC) (F)     (DEG/KT/KT) (MB)    (FT/S) (FT/S/D)
ST AUGUSTINE FP  0100   66     200/  4/  5 1014.6S
20NM E CAPE CANA 0100   76 74  140/ 16/ 19 1014.0S   7/ 9   5/ 50/ 9
120 E NEW SMYRNA 0100   76 76  140/ 17/ 21 1016.4S   7/11   3/ 40/11
TRIDENT PIER     0100   71 74  240/  2/  3 1013.9R
4NM E PORT CANAV 0100      73                N/A     4/10   2/100/11
6NM NE FPR INLET 0100      73                N/A     5/11   2/ 50/11
SETTLEMENT PT GB 0100   77     130/  8/ 10 1016.7R
$$
  
 


USA.gov is the U.S. government's official web portal to all federal, state and local government web resources and services.